     30   21 31.34  +32 50.5    1.572   1.871    51.7/ 12    90.0   32.8   13.2

     31   21 32.19  +33 41.2    1.568   1.869    51.7/ 11    90.2   32.8   13.2

June  1   21 33.02  +34 31.8    1.564   1.868    51.6/ 11    90.3   32.9   13.2

                    m1 =  9.5 + 5 log △ + 10.0 log r





軌道と残差:



    C/2008 J1 (Boattini)

T 2008 June 15.83441 TT                                 Nakano

q   1.8597696            (2000.0)            P               Q

                   Peri.   52.25735     +0.42426420     +0.30019040

                   Node   271.27883     -0.82185284     +0.52377476

e   1.0            Incl.   58.70965     +0.38020756     +0.79721122

From 49 observations 2008 May 2-3.

 

日本スペースガード協会            (c) Copyright JSGA 2008           中野 主一

         **** Don't distribute anyone except personal use only ****

                (C) Copyright 2008 OAA/ComputingSection

write mail from CFAD0::NAKANO on 2008-05-04 05:22:36(JST).

 



戻ります。